Wind_Speed
47 45 41 38 36 33 33 32 29 25 32 39 34 35 40 42 44 43 38 38 39 46 52 66 67 64 89 90 86 77 74 72 71 71 48 54 48 58 60 55 57 57 54 53
41 35 35 33 32 30 31 32 29 32 32 35 33 30 38 33 33 30 29 23 26 34 41 53 65 67 86 94 89 80 77 76 72 68 61 40 47 45 58 56 58 62 60 55
38 36 37 37 38 35 26 34 34 33 32 29 32 28 33 25 23 20 17 21 20 23 30 38 52 62 82 95 91 83 78 77 70 63 62 39 35 33 52 55 58 60 61 54
38 36 35 34 36 42 32 29 32 31 29 25 25 22 26 22 18 19 15 17 24 28 31 34 41 54 76 96 92 85 81 76 66 61 62 64 33 29 46 62 57 55 62 60
37 34 35 37 39 41 41 37 33 24 18 14 17 12 18 18 16 15 14 12 19 22 30 29 36 48 74 93 89 84 82 66 63 56 59 47 51 40 25 41 43 54 59 58
37 40 43 45 38 41 40 31 21 5 9 2 6 8 9 8 12 11 14 8 13 20 26 28 38 44 69 84 86 84 70 58 57 52 55 39 46 35 29 37 38 46 51 58
41 43 45 38 45 45 42 29 17 10 8 6 5 4 4 10 5 5 15 14 9 15 21 29 34 38 51 70 81 71 55 50 53 49 39 33 38 32 32 30 26 48 44 42
42 47 44 43 50 45 43 39 27 13 11 9 7 5 7 15 16 20 8 4 9 12 17 22 25 31 43 63 71 59 52 44 50 49 50 48 27 24 27 21 25 25 27 32
45 46 42 42 48 44 44 42 32 23 5 6 9 7 6 11 20 9 8 11 8 11 14 14 27 31 41 50 52 51 50 38 54 46 42 38 45 6 15 31 30 28 28 30
42 46 44 42 45 41 43 43 35 27 17 12 18 16 13 9 6 9 14 14 15 20 23 29 31 30 36 39 43 42 47 43 42 54 38 27 37 16 8 14 24 28 36 37
41 46 43 42 45 41 43 39 37 24 24 19 18 21 20 20 17 19 17 23 27 29 36 38 36 30 29 37 39 38 25 28 37 41 35 38 25 21 28 25 13 29 32 34
42 43 46 40 47 50 49 38 42 32 23 22 24 28 22 24 26 21 18 24 34 39 42 43 38 32 31 41 48 37 20 22 23 22 22 35 29 14 5 9 12 14 13 20
50 47 47 49 47 49 47 35 42 43 32 29 25 27 28 23 23 22 26 39 45 51 51 44 39 45 31 33 47 21 26 25 23 15 17 23 25 35 14 12 10 9 9 9
48 53 54 54 48 50 51 42 38 44 35 43 34 29 27 25 28 33 40 57 56 47 44 40 30 36 26 27 34 37 24 12 18 19 14 12 21 32 21 18 19 18 17 24
46 48 51 52 53 48 49 48 43 44 38 36 37 32 32 33 43 46 41 36 37 51 39 35 34 39 34 26 28 28 19 18 12 15 11 12 14 19 40 39 35 35 38 43
42 44 45 46 48 52 49 51 52 46 44 38 39 37 42 36 40 40 43 46 52 46 33 38 44 37 31 20 21 22 22 10 8 11 10 15 17 17 20 23 25 31 38 36
38 40 42 46 46 46 53 51 45 53 53 50 46 49 39 35 36 41 42 45 39 39 41 43 36 18 20 19 11 7 10 9 7 9 15 17 20 23 25 28 30 30 31 30
36 39 42 44 44 52 48 47 49 42 46 48 39 40 40 41 38 40 45 40 47 34 34 28 26 28 20 13 8 7 8 10 13 16 17 20 23 27 30 31 32 32 30 28
32 36 40 42 41 42 43 42 41 43 44 41 44 41 37 41 45 37 34 37 40 32 24 17 15 12 11 7 4 4 6 8 9 13 15 16 17 19 20 19 20 22 24 26
28 33 38 38 39 39 36 36 36 36 41 38 37 33 32 30 31 27 26 26 26 21 21 23 18 12 9 7 6 3 2 4 7 11 14 16 15 17 18 18 20 19 18 17
23 27 32 35 36 36 33 32 31 30 31 33 34 33 31 28 25 24 22 19 17 19 19 17 16 15 14 9 6 6 7 8 10 10 11 13 14 15 15 17 15 15 18 22
19 22 27 29 33 32 29 28 26 25 23 23 24 25 26 23 23 23 22 21 20 18 16 13 12 14 15 14 13 14 12 14 12 13 13 12 13 13 14 17 20 23 26 30
16 16 21 24 26 29 28 27 25 22 19 17 18 19 18 17 17 18 19 19 20 20 21 21 20 18 16 14 14 12 14 13 14 15 16 17 18 21 23 25 29 33 36 39
19 16 16 18 20 22 25 25 25 20 16 14 12 12 13 13 13 14 15 16 17 17 18 18 18 18 18 20 20 19 19 17 16 16 18 21 25 28 31 34 37 39 43 46
21 19 19 17 14 13 17 19 21 16 15 16 18 20 19 20 21 22 23 25 27 28 28 27 24 22 19 17 15 14 14 15 17 19 23 27 30 33 37 40 43 46 48 52
22 25 25 17 10 9 10 13 13 11 15 19 21 23 23 25 25 25 24 23 23 23 21 19 17 16 17 17 18 18 20 22 24 26 29 31 34 37 40 43 46 50 53 57
Wind_Direction
322 324 325 321 318 317 311 306 304 292 289 287 283 282 282 281 279 282 270 261 242 234 223 219 219 218 209 211 215 215 217 217 222 222 230 225 230 228 227 225 232 232 232 233
334 334 330 326 324 324 315 309 300 295 288 282 279 282 275 272 279 285 275 248 239 231 220 215 216 219 208 205 211 212 216 217 219 223 224 230 240 223 232 233 227 235 235 235
345 342 337 334 330 325 315 310 306 298 292 285 279 271 264 273 285 279 273 228 222 213 217 223 219 219 207 202 207 209 213 216 217 219 218 221 222 237 240 229 231 231 230 232
356 356 353 346 336 329 325 313 302 296 292 287 281 257 244 258 277 275 258 230 226 233 239 241 228 219 209 201 203 206 212 214 214 218 222 223 230 245 241 236 233 243 234 232
6 1 355 348 335 330 328 324 319 312 300 284 273 229 230 258 270 267 265 258 243 231 232 243 220 216 207 200 200 203 211 211 212 217 221 229 237 238 244 227 232 230 234 244
14 10 2 2 356 347 346 335 337 333 314 198 193 226 238 264 269 294 291 256 262 231 228 226 214 210 205 202 198 202 207 206 206 216 219 232 240 244 240 232 238 237 241 241
8 8 3 9 4 7 12 9 21 26 92 130 125 100 302 324 335 309 283 280 239 223 223 212 210 204 203 202 198 200 198 201 205 204 205 213 230 227 230 241 233 229 233 234
13 10 10 9 9 11 12 21 27 38 99 110 100 56 10 319 316 316 233 284 198 212 200 204 196 182 194 200 199 191 192 189 205 211 214 218 218 226 229 223 215 217 205 219
19 15 15 16 15 17 16 11 17 30 70 105 49 42 37 335 307 4 199 195 156 162 158 166 159 158 186 196 186 186 184 196 206 203 205 219 213 234 233 222 231 208 213 228
15 16 17 21 20 19 15 13 17 34 46 84 78 63 60 44 77 148 135 121 118 123 126 137 134 149 176 182 167 177 186 195 203 209 212 197 191 206 230 231 230 226 211 223
23 25 24 25 22 23 26 30 24 39 42 81 70 79 62 80 86 98 87 89 116 125 127 122 120 139 153 170 156 150 165 195 217 228 249 212 225 253 268 253 262 219 227 222
29 32 28 30 29 24 18 36 42 38 52 61 84 72 74 94 87 86 86 103 114 120 115 110 115 130 146 151 146 145 145 186 190 221 237 250 255 241 236 265 238 213 222 222
33 34 32 35 39 33 31 40 46 53 66 71 90 85 98 96 94 92 107 111 109 104 98 102 111 125 142 163 164 153 182 204 224 219 236 236 245 236 252 233 238 266 236 244
30 30 31 33 32 35 37 44 50 53 66 68 81 94 96 96 100 107 114 110 94 91 88 108 113 130 136 162 171 178 181 204 214 230 237 254 231 238 273 282 284 275 275 310
31 28 27 32 33 37 44 49 53 64 63 71 67 82 95 102 103 94 86 107 101 104 105 105 123 126 112 138 169 180 195 217 229 233 255 274 276 278 256 279 293 298 309 319
31 29 28 27 32 36 44 50 59 65 70 79 80 87 84 93 94 94 111 101 95 102 105 99 118 112 111 142 165 181 216 237 239 262 275 285 284 282 284 291 299 299 303 311
27 27 25 27 29 34 41 46 53 63 73 73 79 77 83 86 83 102 93 96 104 105 112 125 125 146 145 163 183 184 206 234 254 262 278 279 276 282 288 297 308 314 313 314
25 25 26 23 20 30 33 39 49 59 65 75 77 80 87 85 84 93 103 104 116 114 116 117 127 130 132 140 166 194 219 239 253 261 259 266 276 286 293 300 305 308 312 316
23 24 25 25 22 31 30 33 37 46 53 69 76 80 85 89 96 101 109 113 123 125 132 135 137 140 144 162 182 215 241 252 261 277 296 306 311 318 316 314 313 319 328 329
23 24 27 24 24 31 31 34 35 33 43 47 57 66 77 87 92 97 106 120 126 128 134 152 167 181 187 154 149 142 68 347 332 327 329 333 340 348 345 342 340 339 340 338
13 19 23 24 23 28 30 34 35 36 40 40 47 54 58 63 81 93 101 106 104 100 99 102 108 107 95 84 66 58 33 18 26 25 14 359 347 346 353 359 2 351 344 335
7 13 19 20 19 21 24 27 31 36 37 41 48 52 59 62 61 60 61 68 76 79 83 85 88 72 63 59 51 49 36 38 32 22 17 26 27 20 6 354 345 334 326 321
349 4 12 12 14 13 17 18 20 23 26 39 43 53 56 58 61 65 67 67 65 60 62 61 58 57 56 55 52 45 50 47 48 44 24 18 5 351 341 335 331 329 327 324
323 333 355 1 4 6 8 13 14 20 25 28 46 56 58 60 66 67 67 68 69 73 75 73 73 73 72 71 67 61 54 39 26 10 356 349 344 341 337 332 328 326 324 322
313 313 323 332 343 353 1 11 16 37 55 67 74 78 78 80 83 83 84 86 88 89 87 85 81 76 69 62 54 41 24 11 1 352 345 340 336 332 329 327 325 323 321 319
297 301 308 318 327 348 16 18 29 61 79 84 92 89 90 92 91 92 92 92 88 86 80 75 65 55 44 33 23 13 2 353 346 339 335 331 328 325 323 321 320 320 319 318
Height
5584 5574 5565 5557 5550 5545 5537 5533 5531 5531 5527 5521 5522 5521 5519 5516 5513 5512 5507 5503 5502 5506 5511 5523 5539 5551 5567 5585 5602 5620 5633 5644 5653 5661 5666 5679 5678 5692 5699 5704 5707 5708 5713 5717
5577 5567 5558 5550 5544 5540 5533 5527 5526 5522 5518 5512 5511 5511 5505 5505 5504 5501 5495 5493 5494 5497 5503 5511 5526 5536 5551 5569 5589 5608 5620 5631 5644 5656 5667 5670 5674 5680 5687 5687 5697 5699 5704 5707
5572 5563 5554 5547 5539 5533 5531 5521 5515 5510 5505 5504 5500 5500 5495 5497 5495 5492 5489 5488 5491 5495 5503 5512 5519 5527 5537 5556 5574 5595 5609 5620 5637 5650 5660 5665 5668 5671 5674 5681 5687 5692 5695 5698
5572 5563 5555 5545 5536 5525 5521 5515 5505 5499 5494 5492 5490 5490 5489 5491 5489 5487 5485 5485 5487 5491 5496 5501 5504 5515 5527 5542 5563 5584 5599 5614 5633 5644 5651 5660 5661 5665 5667 5675 5677 5680 5685 5689
5573 5562 5554 5545 5532 5519 5509 5500 5492 5487 5483 5482 5481 5483 5484 5484 5484 5482 5481 5480 5482 5482 5485 5488 5493 5505 5518 5537 5559 5579 5590 5613 5629 5640 5648 5655 5660 5662 5663 5666 5669 5671 5676 5679
5572 5562 5552 5541 5528 5515 5501 5489 5482 5479 5478 5478 5478 5480 5481 5481 5480 5479 5476 5476 5475 5476 5480 5483 5489 5499 5513 5532 5553 5573 5593 5610 5623 5636 5644 5652 5653 5655 5657 5659 5662 5664 5666 5670
5573 5563 5551 5540 5529 5513 5502 5489 5480 5479 5476 5477 5477 5479 5478 5477 5476 5476 5472 5471 5470 5473 5476 5480 5488 5498 5513 5530 5552 5572 5594 5609 5619 5629 5635 5642 5646 5648 5651 5652 5653 5655 5660 5665
5577 5565 5554 5542 5526 5513 5504 5493 5485 5479 5477 5477 5477 5478 5478 5474 5470 5468 5467 5468 5468 5470 5474 5481 5490 5501 5515 5532 5554 5578 5593 5608 5616 5623 5630 5635 5643 5642 5645 5647 5649 5652 5657 5661
5580 5568 5556 5544 5530 5522 5508 5496 5487 5482 5478 5478 5478 5479 5478 5474 5467 5464 5464 5465 5467 5471 5477 5485 5494 5506 5522 5541 5563 5580 5596 5609 5614 5620 5628 5630 5637 5641 5639 5644 5646 5649 5652 5656
5585 5574 5561 5549 5540 5527 5512 5501 5490 5484 5480 5479 5479 5479 5477 5475 5471 5468 5467 5465 5471 5475 5481 5489 5499 5513 5530 5549 5568 5582 5594 5601 5609 5617 5621 5624 5630 5635 5637 5640 5640 5643 5647 5650
5590 5579 5568 5557 5544 5531 5520 5507 5495 5488 5485 5482 5480 5481 5480 5478 5476 5476 5477 5474 5475 5480 5487 5494 5507 5523 5540 5558 5572 5589 5600 5607 5610 5616 5618 5620 5627 5634 5633 5636 5638 5637 5640 5643
5597 5585 5573 5563 5549 5537 5523 5513 5503 5494 5490 5486 5484 5486 5484 5483 5483 5484 5484 5483 5482 5488 5494 5504 5518 5534 5550 5564 5580 5589 5595 5603 5606 5613 5616 5619 5625 5633 5632 5633 5636 5635 5635 5636
5602 5591 5582 5571 5562 5550 5536 5522 5513 5506 5498 5493 5490 5491 5490 5489 5488 5490 5490 5490 5493 5497 5506 5519 5534 5551 5560 5571 5583 5584 5595 5600 5606 5610 5617 5622 5626 5628 5630 5631 5633 5634 5634 5634
5608 5597 5586 5575 5567 5557 5546 5535 5526 5519 5511 5504 5500 5497 5496 5495 5495 5496 5495 5498 5505 5511 5523 5534 5549 5562 5567 5578 5587 5594 5599 5604 5609 5613 5618 5623 5625 5629 5626 5627 5627 5629 5628 5628
5615 5606 5597 5587 5578 5570 5559 5548 5539 5533 5524 5517 5514 5509 5505 5505 5505 5505 5507 5513 5524 5533 5542 5552 5558 5572 5577 5584 5592 5599 5602 5608 5610 5614 5618 5622 5625 5626 5625 5624 5623 5623 5623 5623
5623 5617 5609 5601 5590 5582 5572 5563 5555 5545 5538 5529 5526 5524 5520 5517 5518 5518 5525 5532 5541 5549 5555 5564 5573 5579 5585 5589 5596 5602 5606 5609 5613 5615 5615 5618 5620 5622 5623 5622 5622 5622 5620 5617
5632 5625 5618 5609 5603 5594 5582 5576 5571 5563 5554 5547 5540 5538 5535 5532 5533 5537 5541 5549 5554 5562 5568 5574 5577 5585 5590 5595 5599 5604 5608 5609 5610 5612 5613 5614 5615 5615 5615 5616 5614 5612 5611 5609
5639 5632 5625 5617 5610 5595 5592 5587 5583 5579 5573 5567 5561 5552 5551 5551 5548 5554 5559 5561 5566 5569 5575 5580 5586 5591 5595 5600 5602 5604 5607 5609 5611 5611 5613 5614 5614 5614 5613 5612 5608 5606 5605 5603
5645 5639 5631 5625 5618 5611 5602 5597 5593 5590 5585 5581 5578 5574 5570 5568 5566 5570 5572 5575 5578 5581 5583 5586 5591 5594 5598 5601 5603 5605 5606 5608 5610 5611 5610 5611 5610 5609 5609 5607 5607 5605 5602 5599
5649 5644 5639 5632 5626 5619 5615 5608 5602 5597 5592 5590 5586 5586 5586 5585 5584 5583 5582 5583 5585 5588 5591 5593 5595 5596 5598 5601 5603 5605 5606 5607 5607 5608 5608 5607 5607 5606 5605 5603 5601 5599 5597 5595
5653 5648 5643 5639 5634 5628 5623 5618 5613 5608 5605 5598 5595 5594 5594 5595 5596 5594 5595 5595 5595 5595 5596 5598 5599 5601 5602 5603 5605 5606 5608 5608 5610 5610 5610 5609 5608 5606 5602 5599 5598 5597 5594 5591
5656 5652 5647 5643 5639 5634 5630 5626 5622 5619 5615 5610 5606 5603 5601 5602 5602 5602 5601 5601 5601 5602 5603 5604 5604 5605 5607 5609 5609 5609 5609 5609 5609 5608 5607 5606 5605 5603 5601 5600 5597 5596 5594 5590
5657 5654 5650 5648 5644 5639 5634 5629 5625 5622 5619 5617 5613 5611 5610 5609 5609 5608 5607 5606 5607 5607 5607 5608 5608 5608 5609 5609 5609 5610 5609 5610 5609 5609 5607 5606 5604 5602 5599 5596 5593 5590 5585 5579
5656 5653 5650 5648 5646 5642 5638 5633 5628 5624 5621 5619 5618 5616 5615 5614 5614 5613 5612 5612 5612 5611 5611 5611 5612 5612 5612 5613 5614 5613 5612 5612 5611 5610 5608 5605 5602 5598 5595 5592 5589 5584 5578 5572
5654 5651 5648 5646 5645 5643 5640 5636 5632 5629 5625 5623 5621 5619 5619 5618 5617 5616 5616 5616 5616 5616 5616 5616 5618 5618 5618 5618 5617 5617 5616 5614 5613 5610 5607 5604 5600 5595 5590 5584 5578 5572 5565 5557
5650 5648 5645 5643 5642 5642 5639 5637 5635 5633 5631 5629 5627 5626 5625 5624 5624 5623 5622 5622 5622 5621 5621 5622 5622 5621 5621 5619 5618 5617 5615 5613 5610 5607 5603 5599 5595 5590 5585 5579 5573 5566 5557 5549